TimePST,TemperatureF,Dew PointF,Humidity,Sea Level PressureIn,VisibilityMPH,Wind Direction,Wind SpeedMPH,Gust SpeedMPH,PrecipitationIn,Events,Conditions,WindDirDegrees,DateUTC
12:56 AM,-6.0,-9.9,83,30.26,10.0,SSE,9.2,-,N/A,,Clear,160,2013-01-12 08:56:00
1:56 AM,-9.9,-14.1,82,30.29,10.0,SSE,6.9,-,N/A,,Clear,160,2013-01-12 09:56:00
2:56 AM,-11.9,-16.1,82,30.30,10.0,SSE,4.6,-,N/A,,Clear,150,2013-01-12 10:56:00
3:56 AM,-14.1,-18.0,82,30.31,10.0,SSE,4.6,-,N/A,,Clear,160,2013-01-12 11:56:00
4:56 AM,-13.0,-18.0,78,30.35,10.0,SE,6.9,-,N/A,,Clear,140,2013-01-12 12:56:00
5:56 AM,-11.9,-17.0,78,30.39,10.0,South,3.5,-,N/A,,Clear,180,2013-01-12 13:56:00
6:56 AM,-15.0,-20.0,78,30.40,10.0,Calm,Calm,-,N/A,,Clear,0,2013-01-12 14:56:00
7:56 AM,-14.1,-18.9,79,30.45,10.0,SE,5.8,-,N/A,,Clear,140,2013-01-12 15:56:00
8:43 AM,-5.8,-9.4,84,30.16,10.0,SSE,3.5,-,N/A,,Mostly Cloudy,160,2013-01-12 16:43:00
8:56 AM,-4.0,-8.0,83,30.42,10.0,Calm,Calm,-,N/A,,Overcast,0,2013-01-12 16:56:00
9:43 AM,3.2,-0.4,85,30.16,10.0,Calm,Calm,-,N/A,,Scattered Clouds,0,2013-01-12 17:43:00
9:56 AM,7.0,3.0,84,30.39,10.0,Calm,Calm,-,N/A,,Clear,0,2013-01-12 17:56:00
10:56 AM,10.9,3.0,70,30.37,10.0,Calm,Calm,-,N/A,,Clear,0,2013-01-12 18:56:00
11:56 AM,15.1,3.9,61,30.33,10.0,Calm,Calm,-,N/A,,Clear,0,2013-01-12 19:56:00
12:56 PM,16.0,5.0,62,30.32,10.0,Calm,Calm,-,N/A,,Clear,0,2013-01-12 20:56:00
1:56 PM,18.0,5.0,57,30.33,10.0,Calm,Calm,-,N/A,,Clear,0,2013-01-12 21:56:00
2:56 PM,18.0,6.1,60,30.34,10.0,Calm,Calm,-,N/A,,Clear,0,2013-01-12 22:56:00
3:56 PM,18.0,6.1,60,30.35,10.0,Calm,Calm,-,N/A,,Clear,0,2013-01-12 23:56:00
4:56 PM,9.0,3.0,77,30.38,10.0,North,3.5,-,N/A,,Clear,10,2013-01-13 00:56:00
5:56 PM,-0.0,-4.0,83,30.41,10.0,Calm,Calm,-,N/A,,Clear,0,2013-01-13 01:56:00
6:56 PM,-7.1,-9.9,87,30.45,10.0,SSE,8.1,-,N/A,,Clear,150,2013-01-13 02:56:00
7:56 PM,-9.0,-11.9,87,30.48,10.0,SSE,6.9,-,N/A,,Clear,150,2013-01-13 03:56:00
8:56 PM,-11.0,-15.0,83,30.44,10.0,SE,4.6,-,N/A,,Clear,140,2013-01-13 04:56:00
9:56 PM,-11.9,-16.1,82,30.42,10.0,ESE,4.6,-,N/A,,Clear,120,2013-01-13 05:56:00
10:56 PM,-11.0,-16.1,78,30.41,10.0,SE,4.6,-,N/A,,Clear,130,2013-01-13 06:56:00
11:56 PM,-14.1,-18.0,82,30.41,10.0,West,3.5,-,N/A,,Clear,260,2013-01-13 07:56:00